This is the latest recevied weather packets stored in our database for station/object WE0DX-1. If no packets are shown the sender has not sent any weather packets the latest 10 day(s).
| Time | Temp. | Humidity | Pressure | Rain* | Wind** | Luminosity | Snow |
|---|---|---|---|---|---|---|---|
| 1778113332 | 14.44° C | 36% | 1016.5 hPa | 0 mm | - | 16 W/m² | - |
| 1778113029 | 14.44° C | 34% | 1016.1 hPa | 0 mm | - | 17 W/m² | - |
| 1778112727 | 14.44° C | 34% | 1016.4 hPa | 0 mm | - | 18 W/m² | - |
| 1778112423 | 14.44° C | 34% | 1016.3 hPa | 0 mm | - | 26 W/m² | - |
| 1778112119 | 14.44° C | 33% | 1016.5 hPa | 0 mm | - | 19 W/m² | - |
| 1778111816 | 14.44° C | 34% | 1016.5 hPa | 0 mm | - | 20 W/m² | - |
| 1778111511 | 15° C | 34% | 1016.5 hPa | 0 mm | - | 21 W/m² | - |
| 1778111209 | 15° C | 34% | 1016.5 hPa | 0 mm | - | 23 W/m² | - |
| 1778110905 | 15° C | 34% | 1016.4 hPa | 0 mm | - | 42 W/m² | - |
| 1778110603 | 15° C | 34% | 1016.5 hPa | 0 mm | - | 23 W/m² | - |
| 1778110300 | 15° C | 34% | 1016.5 hPa | 0 mm | - | 23 W/m² | - |
| 1778109996 | 15° C | 34% | 1016.4 hPa | 0 mm | - | 24 W/m² | - |
| 1778109691 | 15° C | 34% | 1016.4 hPa | 0 mm | - | 26 W/m² | - |
| 1778109389 | 15° C | 34% | 1016.5 hPa | 0 mm | - | 28 W/m² | - |
| 1778109087 | 15° C | 34% | 1016.1 hPa | 0 mm | - | 103 W/m² | - |
| 1778108783 | 15° C | 34% | 1016.6 hPa | 0 mm | - | 60 W/m² | - |
| 1778108481 | 15° C | 34% | 1016.4 hPa | 0 mm | - | 28 W/m² | - |
| 1778108177 | 15° C | 34% | 1016.1 hPa | 0 mm | - | 44 W/m² | - |
| 1778107873 | 15° C | 34% | 1016.5 hPa | 0 mm | - | 47 W/m² | - |
| 1778107570 | 15° C | 35% | 1016.5 hPa | 0 mm | - | 30 W/m² | - |
| 1778107267 | 15° C | 34% | 1016.3 hPa | 0 mm | - | 36 W/m² | - |
| 1778106963 | 15° C | 35% | 1016.5 hPa | 0 mm | - | 32 W/m² | - |
| 1778106659 | 15° C | 33% | 1016.5 hPa | 0 mm | - | 35 W/m² | - |
| 1778106356 | 15° C | 33% | 1016.5 hPa | 0 mm | - | 35 W/m² | - |
| 1778106052 | 15° C | 34% | 1016.7 hPa | 0 mm | - | 52 W/m² | - |
* Rain latest hour (hover to see other rain measurements)
** Current wind speed in m/s (hover to see current wind gust speed)